Location: Milano
(45.4642°N, 9.1900°E)
Time: 02:45:02
(UTC+02:00)

ISS - Pass Details

Date: 16 May 2021
Orbit: 417 x 422 km, 51.6° (Epoch: 14 June)

Event Time Altitude Azimuth Distance (km) Brightness Sun altitude
Rises 22:49:43 0° 251° (WSW) 2,357 0.3 -16.8°
Reaches altitude 10° 22:51:50 10° 255° (WSW) 1,496 -0.7 -17.1°
Maximum altitude 22:55:09 59° 336° (NNW) 489 -3.2 -17.4°
Drops below altitude 10° 22:58:30 10° 57° (ENE) 1,505 -1.0 -17.7°
Sets 23:00:37 0° 61° (ENE) 2,373 0.0 -17.9°
